Weather Roundup
Issued by NWS Chicago, IL

Home | Current Version | Previous Version | Graphics & Text | Print | Product List | Glossary On
Versions: 1 2 3 4 5 6 7 8 9 10 11 12 13 14 15 16 17 18 19 20 21 22 23 24 25 26 27 28 29 30 31 32 33 34 35 36 37 38 39 40 41 42 43 44 45 46 47 48 49 50
000
NZUS59 KLOT 301310
HRRLOT

CHICAGO AREA WEATHER ROUNDUP
NATIONAL WEATHER SERVICE CHICAGO/ROMEOVILLE IL
700 AM CST FRI JAN 30 2015

NOTE: "FAIR" INDICATES FEW OR NO CLOUDS BELOW 12,000 FEET WITH NO
SIGNIFICANT WEATHER AND/OR OBSTRUCTIONS TO VISIBILITY.

* THESE STATIONS ARE NOT UNDER NWS QUALITY CONTROL. THEY ALSO MAY NOT
  REPORT WEATHER SUCH AS PRECIPITATION OR FOG.

ILZ005-006-012>014-019>023-301400-
NORTHEAST ILLINOIS

CITY           SKY/WX    TMP DP  RH WIND       PRES   REMARKS
OHARE          PTCLDY    20   8  60 N9        30.49R WCI   9
MIDWAY         PTCLDY    24   9  52 N12       30.49R WCI  13
AURORA         CLEAR     20  12  71 N10       30.50R WCI   9
LANSING*       PTCLDY    23   9  53 NW12      30.48R WCI  12
JOLIET*        CLEAR     23  11  60 N6        30.50R WCI  15
WAUKEGAN       CLEAR     17   8  67 VRB5      30.48R WCI  10
DUPAGE AIRPORT PTCLDY    19  10  68 N7        30.48R WCI  10
WHEELING       CLEAR     19   8  62 N6        30.51R WCI  11
KANKAKEE*      CLEAR     24  13  63 N7        30.50R WCI  15
MORRIS*        CLEAR     20  15  82 N6        30.49S WCI  12
LEWIS AIRPORT* CLEAR     19  10  65 N6        30.49R WCI  11
NORTHERLY IS     N/A     24  10  55 NW10        N/A  WCI  14
$$

WIZ051-052-058>065-066-070>072-301400-
SOUTHEAST WISCONSIN

CITY           SKY/WX    TMP DP  RH WIND       PRES   REMARKS
MILWAUKEE      PTCLDY    18   8  65 NW7       30.49R WCI   9
KENOSHA*       CLEAR     17   8  67 NW8       30.48R WCI   7
RACINE*        CLEAR     17   8  67 NW7       30.50R WCI   8
BURLINGTON     CLEAR     13   4  65 NW5       30.49R WCI   5
WAUKESHA       CLEAR     12   3  67 NW6       30.49R WCI   3
WEST BEND      CLEAR     14   5  67 NW3       30.47R
$$

INZ001>003-010>013-019-020-301400-
NORTHWEST INDIANA

CITY           SKY/WX    TMP DP  RH WIND       PRES   REMARKS
GARY*          MOCLDY    27   7  43 NW14G25   30.48R WCI  15
MICHIGAN CITY* NOT AVBL
RENSSELAER*    NOT AVBL
VALPARAISO     FLURRIES  24  18  77 N7        30.45R WCI  16
$$

LMZ740>746-301400-
SOUTHERN LAKE MICHIGAN

STATION/POSITION TIME  SKY/WX   TEMP WIND        PRES    VSBY
                                AIR  DIR/SP/G
                 (UTC)          (F)  (DEG/KT/KT) (MB)    (MI)
HARRISON CRIB    1300            24  310/ 19/ 23   N/A
BURNHAM HARBOR   1300            24  340/ 12/ 18   N/A
CALUMET HARBOR   1300            24  310/  9/ 17   N/A
BURNS HARBOR     NOT AVBL
MICHIGAN CITY    1300            26  350/ 23/ 29   N/A
$$

ABBREVIATIONS USED IN REMARKS
   TC - TEMPERATURE IN CELSIUS
  WCI - WIND CHILL INDEX
   HX - HEAT INDEX
  VSB - VISIBILITY
$$


USA.gov is the U.S. government's official web portal to all federal, state and local government web resources and services.